This is the latest recevied weather packets stored in our database for station/object NEWPRT. If no packets are shown the sender has not sent any weather packets the latest 10 day(s).
| Time | Temp. | Humidity | Pressure | Rain* | Wind** | Luminosity | Snow |
|---|---|---|---|---|---|---|---|
| 1777333322 | - | 72% | 1020.6 hPa | 0 mm | - | - | - |
| 1777332999 | - | 64% | 1020.9 hPa | 0 mm | - | - | - |
| 1777332676 | - | 62% | 1021.1 hPa | 0 mm | - | - | - |
| 1777332353 | - | 61% | 1020.8 hPa | 0 mm | - | - | - |
| 1777332030 | - | 58% | 1020.6 hPa | 0 mm | - | - | - |
| 1777331706 | - | 59% | 1020.9 hPa | 0 mm | - | - | - |
| 1777331384 | - | 58% | 1021.1 hPa | 0 mm | - | - | - |
| 1777331061 | - | 59% | 1020.9 hPa | 0 mm | - | - | - |
| 1777330738 | - | 60% | 1020.9 hPa | 0 mm | - | - | - |
| 1777330415 | - | 59% | 1020.9 hPa | 0 mm | - | - | - |
| 1777330092 | - | 58% | 1021 hPa | 0 mm | - | - | - |
| 1777329769 | - | 55% | 1020.9 hPa | 0 mm | - | - | - |
| 1777329446 | - | 58% | 1020.9 hPa | 0 mm | - | - | - |
| 1777329123 | - | 58% | 1020.6 hPa | 0 mm | - | - | - |
| 1777328802 | - | 57% | 1020.9 hPa | 0 mm | - | - | - |
| 1777328476 | - | 56% | 1020.8 hPa | 0 mm | - | - | - |
| 1777328154 | - | 58% | 1020.8 hPa | 0 mm | - | - | - |
| 1777327831 | - | 61% | 1021 hPa | 0 mm | - | - | - |
| 1777327507 | - | 60% | 1020.9 hPa | 0 mm | - | - | - |
| 1777327184 | - | 60% | 1020.8 hPa | 0 mm | - | - | - |
| 1777326861 | - | 59% | 1020.6 hPa | 0 mm | - | - | - |
| 1777326538 | - | 60% | 1020.4 hPa | 0 mm | - | - | - |
| 1777326215 | - | 59% | 1020.8 hPa | 0 mm | - | - | - |
| 1777325893 | - | 59% | 1020.8 hPa | 0 mm | - | - | - |
| 1777325570 | - | 58% | 1020.2 hPa | 0 mm | - | - | - |
* Rain latest hour (hover to see other rain measurements)
** Current wind speed in m/s (hover to see current wind gust speed)